Hourly Data Report for January 07, 2021

STE-ANNE-DE-BELLEVUE 1
QUEBEC
Current Station Operator: ECCC - MSC

45°25'38.000" N
73°55'45.000" W
39.00 m
702FHL8
71377
WVQ

Download Data

Hourly Data (January 2021)
Hourly Data Report for January 7, 2021
TIME
LST
Temp Definition
°C
Dew Point Definition
°C
Rel Hum Definition
%
Precip. Amount Definition
mm

Wind Dir Definition
10's deg

Wind Spd Definition
km/h
Visibility Definition
km
Stn Press Definition
kPa
Hmdx Definition


Wind Chill Definition


Weather Definition


00:00 -6.0 -9.0 79 0.0 29 10   101.68   -10 LegendNANA
01:00 -6.9 -9.5 82 0.0 29 7   101.71   -10 LegendNANA
02:00 -7.5 -9.6 85 0.0 28 5   101.76   -10 LegendNANA
03:00 -7.7 -9.8 85 0.0 26 7   101.79   -11 LegendNANA
04:00 -8.1 -9.7 88 0.0 24 9   101.79   -13 LegendNANA
05:00 -9.0 -10.1 91 0.0 24 6   101.82   -12 LegendNANA
06:00 -8.6 -9.6 92 0.0 25 8   101.86   -13 LegendNANA
07:00 -8.1 -9.5 89 0.0 29 8   101.90   -12 LegendNANA
08:00 -9.4 -10.4 93 0.0 28 3   101.97   -11 LegendNANA
09:00 -5.7 -8.0 83 0.0 25 2   101.98   -7 LegendNANA
10:00 -3.5 -7.7 73 0.0 29 7   101.98   -6 LegendNANA
11:00 -2.9 -7.6 70 0.0 30 9   101.92   -6 LegendNANA
12:00 -2.3 -7.0 70 0.0 29 14   101.86   -7 LegendNANA
13:00 -1.7 -7.2 66 0.0 29 13   101.79   -6 LegendNANA
14:00 -1.4 -7.0 66 0.0 27 14   101.79   -6 LegendNANA
15:00 -1.8 -7.0 68 0.0 27 13   101.80   -6 LegendNANA
16:00 -3.2 -7.5 72 0.0 25 17   101.83   -9 LegendNANA
17:00 -4.4 -8.4 74 0.0 25 15   101.87   -10 LegendNANA
18:00 -4.8 -8.7 74 0.0 26 15   101.91   -10 LegendNANA
19:00 -5.7 -9.5 74 0.0 27 13   101.95   -11 LegendNANA
20:00 -6.4 -9.9 76 0.0 26 14   101.95   -12 LegendNANA
21:00 -7.5 -10.3 81 0.0 25 14   101.96   -13 LegendNANA
22:00 -7.0 -9.8 80 0.0 25 13   101.92   -13 LegendNANA
23:00 -6.9 -9.4 82 0.0 26 11   101.89   -12 LegendNANA

Notes on Data Quality.

Legend

  • E = Estimated
  • M = Missing
  • NA = Not Available*
  • [empty] = Indicates an unobserved value
Date modified: